Andrew Mohammed

Recruteur en chef - Hearts of Oak
28 Nov 2027
Dimanche
Processus

Personnalité

Adaptabilité (7) Ambition (5) Controverse (5) Loyauté (5) Pression (8) Professionnalisme (9) Sportivité (14) Tempérament (3)

Profil

Style d'entraînement Démocratique
Diplôme National A
Détermination 9
Gestion des joueurs 8
Motivation 8
Discipline 6
Satisfaction professionnelle
86%
Fatigue
0%
Rôle Recruteur en chef
Salaire 54.4K p/s
Contrat 14.03.2028

Performance

Comportement Bon
Efficacité de l'entraînement
26%
Développement des joueurs
30%
Prévention des blessures
55%
Mise en place tactique
30%

Événements récents

A évalué un joueur maintenant
A participé à une réunion de recrutement maintenant
A évalué un joueur maintenant
A évalué un joueur maintenant
A évalué un joueur maintenant
A évalué un joueur maintenant
A observé un match 7j
A évalué un joueur 7j

Suivi en cours

71
Joueur Club Statut Capacité Confiance Observé Dernière observation Dernier vote
Tomás Fernández Aldosivi Actif 130 / 113 40% 3 27.11.2027 -
Nathan Fogaça Fortaleza Actif 132 / 126 40% 2 27.11.2027 -
Maclyn Biokpo Jenewari Rivers United Actif 116 / 111 40% 2 26.11.2027 -
Arthur Sales Maritzburg United Actif 119 / 118 40% 1 26.11.2027 -
Jhoao Rodríguez Deportes Quindio Actif 126 / 102 40% 2 25.11.2027 -
Dominic Calvert-Lewin Leeds United Actif 135 / 155 40% 1 25.11.2027 -
Aaron Collins Milton Keynes Dons Actif 104 / 114 40% 1 24.11.2027 -
Abubakar Garba Nasarawa United Actif 104 / 91 40% 1 24.11.2027 -
Franco García Colón Actif 111 / 119 40% 5 23.11.2027 -
Franco Ayunta Temperley Actif 93 / 115 40% 1 22.11.2027 -
Shota Shekiladze Dila Actif 105 / 125 40% 1 21.11.2027 -
Sunday Megwo Abia Warriors Actif 107 / 101 40% 1 21.11.2027 -
Thiago Calone All Boys Actif 125 / 118 40% 1 18.11.2027 -
Renzo Reynaga Patronato Actif 109 / 123 40% 1 17.11.2027 -
Friday Ubong Ilves Actif 112 / 95 40% 1 17.11.2027 -
Mauro Valiente Estudiantes Actif 114 / 113 40% 1 16.11.2027 -
Lautaro Gordillo Colegiales Actif 126 / 103 40% 1 16.11.2027 -
Umar Ada Nasarawa United Actif 107 / 102 40% 3 11.11.2027 -
Adama Goïta Remo Stars Actif 108 / 105 40% 2 11.11.2027 -
Yegor Kortsov Dinamo Brest Actif 91 / 97 40% 2 10.11.2027 -
Juan Moreno Llaneros Actif 81 / 97 40% 1 10.11.2027 -
Gianluca Pugliese Güemes Actif 97 / 118 40% 1 09.11.2027 -
Felipe Valencia Valledupar Actif 127 / 105 40% 1 09.11.2027 -
Agustín Lavezzi Quilmes Actif 100 / 112 40% 2 05.11.2027 -
Tyreece Campbell Charlton Athletic Actif 117 / 135 40% 1 05.11.2027 -
Favio Cabral Mitre Actif 139 / 105 40% 4 04.11.2027 -
Samuel Anakwe Remo Stars Actif 104 / 103 40% 2 04.11.2027 -
José Barreto Quilmes Actif 122 / 100 40% 1 03.11.2027 -
Elías Peralta Lokomotivi Actif 91 / 103 40% 1 02.11.2027 -
Alejandro Rincon Llaneros Actif 87 / 98 40% 1 31.10.2027 -
Timothy Zechariah Rivers United Actif 95 / 105 40% 1 31.10.2027 -
Facundo Krüger Temperley Actif 123 / 129 40% 2 30.10.2027 -
Enzo González Defensores Actif 128 / 108 40% 1 30.10.2027 -
Erik Bodencer Central Norte Actif 98 / 104 40% 3 29.10.2027 -
Santiago Rodríguez Gimnasia y Esgrima Actif 115 / 106 40% 1 28.10.2027 -
Sagir Arce Saburtalo Actif 89 / 99 40% 1 28.10.2027 -
Juan Cruz Zurbriggen San Telmo Actif 115 / 98 40% 1 26.10.2027 -
Chukwuemeka Obioma Abia Warriors Actif 93 / 103 40% 2 25.10.2027 -
Marcos Camarda Santiago Wanderers Actif 106 / 97 40% 2 25.10.2027 -
Ronaldo Peña Deportivo Lara Actif 93 / 118 40% 1 23.10.2027 -
Alan Bonansea Colón Actif 103 / 119 40% 1 21.10.2027 -
Ismail Sarki Niger Tornadoes Actif 85 / 104 40% 1 20.10.2027 -
Lucas Carrizo Plaza Colonia Actif 102 / 116 40% 1 19.10.2027 -
Matías Vargas Gimnasia y Esgrima Actif 112 / 115 40% 1 16.10.2027 -
Marco Miori Alvarado Actif 91 / 98 40% 1 15.10.2027 -
Daniel Barrea Godoy Cruz Actif 126 / 117 40% 1 14.10.2027 -
José Balza Deportivo Tachira Actif 91 / 119 40% 1 14.10.2027 -
Dato Mchedlidze Tskhinvali Actif 99 / 102 40% 1 08.10.2027 -
Matías Samaniego Talleres Actif 122 / 103 40% 1 07.10.2027 -
Luca Franco Arsenal Actif 88 / 110 40% 1 07.10.2027 -
Rodrigo Pollero Deportivo Tachira Actif 124 / 114 40% 1 06.10.2027 -
Rodrigo González Mitre Négociation 140 / 99 40% 1 23.08.2027 -
Carlos Sosa Carabobo Actif 92 / 118 40% 1 23.08.2027 -
Aaron Collins Milton Keynes Dons Perdu 128 / 130 40% 1 21.06.2027 -
Ben Wiles Milton Keynes Dons Perdu 135 / 103 40% 1 21.06.2027 -
Matthew Garbett Peterborough United Perdu 123 / 122 40% 1 14.06.2027 -
James Furlong Walsall Perdu 103 / 112 40% 1 14.06.2027 -
Nathan Broadhead Wrexham Perdu 116 / 121 40% 1 31.05.2027 -
Marquinhos APOEL Actif 119 / 135 40% 1 13.01.2027 -
Thulani Mabaso Platinum Stars Actif 99 / 94 40% 1 13.01.2027 -
Daniel Addo WAFA Actif 92 / 95 44% 1 11.01.2027 -
Daniel Awuni Aduana Stars Actif 97 / 101 44% 1 02.01.2027 -
Ethan Chislett Bidvest Wits Actif 84 / 83 40% 1 31.12.2026 -
Siphamandla Sabelo Bloemfontein Celtic Actif 74 / 81 40% 1 31.12.2026 -
Jordan Houghton Stevenage Actif 122 / 113 40% 1 31.08.2026 -
Goodman Mosele Chippa United Actif 129 / 120 40% 1 31.08.2026 -
Baba Amoah BA All Stars Actif 102 / 101 44% 1 24.08.2026 -
Sam Nombe Milton Keynes Dons Actif 107 / 111 40% 1 24.08.2026 -
Fawaaz Basadien Mamelodi Sundowns Actif 139 / 101 40% 1 17.08.2026 -
Jacob Murphy Newcastle United Actif 148 / 135 40% 1 02.08.2026 -
Rabby Nzingoula West Bromwich Albion Actif 123 / 129 40% 1 02.08.2026 -